Showing default

COSMOS 2558, 53323

Orbit data source: Space-Track

COSMOS 2558, 53323 is a payload satellite owned by TS VS RF (CIS) in SSO that was launched on Mon, 01 Aug 2022 UTC via a SOYUZ-2-1V launch vehicle from the Plesetsk Missile And Space Complex (PKMTR). Payload-class satellites include a variety of spacecraft equipped with specific instruments for various scientific and technological missions. These include communications satellites like Starlink; space stations such as the ISS; scientific satellites like the Hubble; Earth observation satellites from companies like Planet Labs, Umbra, and HawkEye 360; GPS; miniature CubeSats for education and research; and military/defense satellites.

Loading next visibility...
Identifier
53323, 2022-089A
Orbit
SSO
Last TLE update
12 hours ago
Origin
Manufacturer
Lavochkin
Mission
Operational Defense Technology
Bus & Motor
KARAT-200, Unknown motor
Mass
547 kg wet, ~400 kg dry
Launch date (UTC)
2022-08-01 (3 years ago)
Launch vehicle
SOYUZ-2-1V
Launch site
Plesetsk Missile And Space Complex (PKMTR)
Object type
Payload
Rocket body
Debris
Shape & HBR
Cyl + 2 Pan, 3 m
Radar Cross Section
3.727 m², Large (>1 m²)

Expand to show TLE details & history

TLE from 12 hours ago
0 COSMOS 2558
1 53323U 22089A   25128.92008018  .00021561  00000-0  60891-3 0  9995
2 53323  97.2339 226.2282 0004976  85.0039 275.1773 15.36369367155187
Epoch: 2025-05-08T22:04Z
Definitive object data (Epoch: 2025-05-08T22:04:54.927Z)
Latitude
-0.00007°
Longitude
28.01569°
Altitude
459.668 km
Speed
7.637 km/s
True Right ascension
15h 04m 54s
True Declination
0° 00' 00"
Sunlit
Object was in full shadow at TLE epoch
Visualization TLE readout
Latitude
9.06056°
Longitude
-150.35234°
Altitude
459.041 km
Speed
7.638 km/s
Apparent Right ascension
04h 19m 44s
Apparent Declination
-15° 20' 47"
Sunlit
Object is in daylight
Visualization observer readout
Local Sidereal Time
17:55:14
Azimuth
47.089° ENE
Elevation
-57.797°
Doppler factor
1
Orbital elements
Apogee altitude
457.192 km
Perigee altitude
450.393 km
Semi-major axis
6,831.93 km
Eccentricity
0.0004976
Inclination
97.2339°
RAAN
226.2282°
Arg. of periapsis
85.0039°
True anomaly
275.12051°
Mean anomaly
275.1773°
Eccentric anomaly
275.1489°
Mean motion
3.84351 °/min
BSTAR
0.00060891
Orbital period
93.66 mins
Loading maneuver chart data...
Loading SW <> Apogee altitude chart data...
Loading historical data...
Loading historical data...
Loading historical data...
Loading historical data...
Loading historical data...
Loading historical data...
Loading historical data...
Other satellites on launch #89 in the year 2022 (2022-08-01 UTC)

COSMOS 2558 Visibility forecast

Observer location: undefined°, undefined°

Span
Click to sort rows by Start time (UTC) header in descending order
Start Az.
Max El. time (UTC)
Max El. Az.
Max El.
End time (UTC)
End Az.
6 mins2025-05-09 18:57:51.952Z28.44° NE2025-05-09 19:00:51.952Z109.145° ESE33.838°2025-05-09 19:03:51.952Z171.623° S
4 mins2025-05-10 07:02:51.952Z213.662° SW2025-05-10 07:04:51.952Z271.415° WNW26.541°2025-05-10 07:06:51.952Z318.531° NNW
|